Location: Haliburton Scout Reserve
(45.0900°N, 78.3200°W)
Time: 10:15:25
(UTC-05:00)

N. Korean satellite - Visible Passes

Search period start: 28 November 2021 00:00
Search period end: 08 December 2021 00:00
Orbit: 447 x 495 km, 97.3° (Epoch: 27 November)

Date Brightness Start Highest point End Pass type
(mag) Time Alt. Az. Time Alt. Az. Time Alt. Az.
28 Nov 6.5 05:51:58 10° N 05:55:18 52° WNW 05:58:36 10° SSW visible
29 Nov 6.8 05:23:29 10° NNE 05:26:52 62° ESE 05:30:12 10° S visible
29 Nov 9.6 17:33:19 10° SW 17:35:51 18° W 17:38:22 10° NW visible
30 Nov 8.6 04:55:24 10° NE 04:58:18 26° E 05:01:10 10° SSE visible
30 Nov 7.8 06:28:52 10° NNW 06:31:21 19° WNW 06:33:49 10° WSW visible
30 Nov 8.2 17:03:53 10° S 17:07:14 39° W 17:10:35 10° NNW visible
01 Dec 9.8 04:28:15 10° ENE 04:29:37 12° E 04:30:58 10° ESE visible
01 Dec 6.7 05:59:49 10° N 06:03:03 41° WNW 06:06:14 10° SW visible
02 Dec 6.4 05:31:13 10° NNE 05:34:37 80° ESE 05:37:59 10° S visible
02 Dec 9.8 17:41:36 10° SW 17:43:39 15° W 17:45:43 10° NW visible
03 Dec 8.2 05:02:58 10° NNE 05:06:04 32° E 05:09:08 10° SSE visible
03 Dec 8.0 06:36:53 10° NNW 06:39:01 16° WNW 06:41:07 10° WSW visible
03 Dec 8.7 17:11:49 10° SSW 17:15:00 31° W 17:18:10 10° NNW visible
04 Dec 9.5 04:35:24 10° NE 04:37:23 15° E 04:39:22 10° SE visible
04 Dec 7.0 06:07:38 10° N 06:10:43 32° WNW 06:13:46 10° SW visible
05 Dec 6.2 05:38:54 10° N 05:42:17 80° WNW 05:45:40 10° SSW visible
05 Dec 10.0 17:50:04 10° WSW 17:51:25 12° W 17:52:45 10° WNW visible
06 Dec 7.7 05:10:31 10° NNE 05:13:45 40° E 05:16:57 10° S visible
06 Dec 8.2 06:44:58 10° NW 06:46:36 13° WNW 06:48:12 10° W visible
06 Dec 9.1 17:19:45 10° SSW 17:22:41 25° W 17:25:38 10° NW visible
07 Dec 9.2 04:42:40 10° NE 04:45:05 18° E 04:47:30 10° SE visible
07 Dec 7.3 06:15:24 10° NNW 06:18:18 26° WNW 06:21:11 10° SW visible
